Weather History for Kirksville, MO

Change the Weather History Date:

Saturday, August 31, 2013

  Actual Average Record
Temperature  
Mean Temperature 81 °F 70 °F  
Max Temperature 96 °F 82 °F 99 °F (1953)
Min Temperature 66 °F 59 °F 41 °F (1967)
Degree Days  
Heating Degree Days 0 1  
Month to date heating degree days 5 2  
Since 1 June heating degree days 49 23  
Since 1 July heating degree days 13 7  
Cooling Degree Days 16 6  
Month to date cooling degree days 278 277  
Year to date cooling degree days 810 844  
Since 1 June cooling degree days 742 782  
Growing Degree Days 32 (Base 50)    
Moisture  
Dew Point 69 °F    
Average Humidity 65    
Maximum Humidity 90    
Minimum Humidity 39    
Precipitation  
Precipitation 0.00 in 0.17 in 3.06 in (2003)
Month to date precipitation T 3.82  
Year to date precipitation 29.89 27.41  
Sea Level Pressure  
Sea Level Pressure 29.80 in    
Wind  
Wind Speed 5 mph (West)    
Max Wind Speed 10 mph    
Max Gust Speed 17 mph    
Visibility 10 miles    
Events      
T = Trace of Precipitation, MM = Missing Value Source: NWS Daily Summary

Daily Weather History Graph

Daily Weather History Graph

Search for Another Location

Airport:

Trip Planner

Search our weather history database for the weather conditions in past years. The results will help you decide how hot, cold, wet, or windy it might be!

Date:

Astronomy

Aug. 31, 2013 Rise Set
Actual Time 6:37 AM CDT 7:42 PM CDT
Civil Twilight 6:09 AM CDT 8:10 PM CDT
Nautical Twilight 5:36 AM CDT 8:43 PM CDT
Astronomical Twilight 5:01 AM CDT 9:18 PM CDT
Moon 2:06 AM CDT (8/31) 4:41 PM CDT (8/31)
Length of Visible Light 14h 01m
Length of Day
13h 05m
Waning Crescent, 21% of the Moon is Illuminated
Aug 31
Waning Crescent
Sep 5
New
Sep 12
First Quarter
Sep 19
Full
Sep 26
Last Quarter

Hourly Weather History & Observations

Time (CDT) Temp. Heat Index Dew Point Humidity Pressure Visibility Wind Dir Wind Speed Gust Speed Precip Events Conditions
12:55 AM 82.0 °F 85.5 °F 69.1 °F 65% 29.82 in 10.0 mi SW 6.9 mph - N/A   Clear
1:55 AM 81.0 °F 84.4 °F 70.0 °F 69% 29.81 in 10.0 mi SW 5.8 mph - N/A   Clear
2:55 AM 80.1 °F 83.2 °F 70.0 °F 71% 29.80 in 10.0 mi SW 5.8 mph - N/A   Clear
3:55 AM 78.1 °F - 70.0 °F 76% 29.80 in 10.0 mi SSW 4.6 mph - N/A   Clear
4:55 AM 79.0 °F - 70.0 °F 74% 29.79 in 10.0 mi SW 6.9 mph - N/A   Clear
5:55 AM 78.1 °F - 71.1 °F 79% 29.81 in 10.0 mi WSW 5.8 mph - N/A   Mostly Cloudy
6:55 AM 78.1 °F - 71.1 °F 79% 29.81 in 10.0 mi WSW 4.6 mph - N/A   Scattered Clouds
7:55 AM 79.0 °F - 71.1 °F 77% 29.81 in 10.0 mi WSW 6.9 mph - N/A   Clear
8:55 AM 82.0 °F 86.3 °F 71.1 °F 69% 29.82 in 10.0 mi West 5.8 mph - N/A   Clear
9:55 AM 84.9 °F 92.1 °F 73.9 °F 69% 29.83 in 10.0 mi West 6.9 mph - N/A   Clear
10:55 AM 89.1 °F 98.0 °F 73.9 °F 61% 29.82 in 10.0 mi NNW 6.9 mph - N/A   Partly Cloudy
11:55 AM 91.9 °F 99.5 °F 72.0 °F 52% 29.81 in 10.0 mi NW 6.9 mph - N/A   Clear
12:55 PM 91.0 °F 97.6 °F 71.1 °F 52% 29.80 in 10.0 mi Variable 3.5 mph - N/A   Partly Cloudy
1:55 PM 93.0 °F 97.9 °F 69.1 °F 45% 29.81 in 10.0 mi North 8.1 mph - N/A   Clear
2:55 PM 91.9 °F 95.9 °F 68.0 °F 45% 29.78 in 10.0 mi NW 5.8 mph - N/A   Clear
3:55 PM 95.0 °F 99.0 °F 66.9 °F 40% 29.79 in 10.0 mi Variable 5.8 mph - N/A   Clear
4:55 PM 91.0 °F 94.3 °F 66.9 °F 45% 29.79 in 10.0 mi NNW 8.1 mph - N/A   Clear
5:55 PM 93.0 °F 95.0 °F 64.9 °F 39% 29.79 in 10.0 mi West 8.1 mph - N/A   Clear
6:55 PM 86.0 °F 87.6 °F 64.9 °F 49% 29.78 in 10.0 mi WNW 3.5 mph - N/A   Clear
7:55 PM 81.0 °F 83.0 °F 66.0 °F 60% 29.77 in 10.0 mi North 3.5 mph - N/A   Clear
8:55 PM 77.0 °F - 66.0 °F 69% 29.79 in 10.0 mi NW 3.5 mph - N/A   Clear
9:55 PM 73.0 °F - 66.0 °F 79% 29.82 in 10.0 mi Calm Calm - N/A   Clear
10:55 PM 69.1 °F - 66.0 °F 90% 29.83 in 10.0 mi Calm Calm - N/A   Clear
11:55 PM 68.0 °F - 64.9 °F 90% 29.82 in 10.0 mi Calm Calm - N/A   Clear